�N����,����,�~����,�C��,���x,�C��,����,���ϕ���,�ő�u�ԕ���,�ő厞����,���˗�,�I�_���x,�n�����x,�ő啗���N��,DTYPE
"23/06/13","00:10",0.0,21.0,91.9,999.3,305.0,1.2,2.0,304.9,0.00,19.7,20.7,"00:09:04",1
"23/06/13","00:20",0.0,21.0,92.0,999.6,315.4,1.6,2.8,339.2,0.00,19.7,20.7,"00:19:28",1
"23/06/13","00:30",0.0,21.0,91.9,999.3,331.8,1.7,3.5,344.9,0.00,19.7,20.8,"00:22:08",1
"23/06/13","00:40",0.0,21.0,91.9,999.6,332.2,1.5,3.2,330.4,0.00,19.7,20.7,"00:39:52",1
"23/06/13","00:50",0.0,20.9,91.9,999.1,329.6,2.1,3.1,316.6,0.00,19.6,20.8,"00:40:08",1
"23/06/13","01:00",0.0,21.0,91.8,999.1,333.7,2.0,3.2,337.8,0.00,19.7,20.7,"00:54:56",1
"23/06/13","01:10",0.0,20.9,91.8,999.1,322.5,1.8,2.7,310.2,0.00,19.6,20.7,"01:08:04",1
"23/06/13","01:20",0.0,20.9,91.8,999.1,284.6,1.3,2.1,323.1,0.00,19.6,20.8,"01:10:08",1
"23/06/13","01:30",0.0,20.7,91.8,999.3,315.8,0.3,1.4,311.9,0.00,19.4,20.6,"01:21:20",1
"23/06/13","01:40",0.0,20.5,91.8,999.6,309.0,0.6,1.1,335.1,0.00,19.2,20.7,"01:31:36",1
"23/06/13","01:50",0.0,20.4,92.1,999.1,293.9,1.0,1.8,325.6,0.00,19.1,20.7,"01:48:48",1
"23/06/13","02:00",0.0,20.4,92.3,999.3,321.2,1.3,1.7,320.2,0.00,19.1,20.6,"01:53:28",1
"23/06/13","02:10",0.0,20.3,92.5,999.6,308.2,1.3,2.0,307.8,0.00,19.1,20.7,"02:07:20",1
"23/06/13","02:20",0.0,20.3,92.8,999.3,317.2,1.1,1.4,325.4,0.00,19.1,20.6,"02:12:56",1
"23/06/13","02:30",0.0,20.3,92.9,999.1,318.7,1.1,1.8,329.8,0.00,19.2,20.6,"02:20:56",1
"23/06/13","02:40",0.0,20.4,93.1,999.1,321.7,1.1,1.6,310.3,0.00,19.3,20.6,"02:37:20",1
"23/06/13","02:50",0.0,20.5,93.2,999.3,298.1,1.2,2.7,307.8,0.00,19.4,20.7,"02:40:02",1
"23/06/13","03:00",0.0,20.4,93.3,998.9,328.4,1.5,2.7,317.8,0.00,19.3,20.6,"02:50:48",1
"23/06/13","03:10",0.0,20.3,93.3,999.3,312.8,1.0,1.8,322.7,0.00,19.2,20.6,"03:03:44",1
"23/06/13","03:20",0.0,20.1,93.4,998.9,273.9,0.6,0.9,260.5,0.00,19.0,20.4,"03:11:28",1
"23/06/13","03:30",0.0,20.0,93.6,999.3,315.2,1.2,1.9,322.6,0.00,19.0,20.6,"03:27:12",1
"23/06/13","03:40",0.0,19.9,93.7,999.3,301.2,1.0,1.2,301.1,0.00,18.9,20.6,"03:37:20",1
"23/06/13","03:50",0.0,19.7,93.9,999.8,313.9,1.0,1.7,320.1,0.00,18.7,20.6,"03:49:20",1
"23/06/13","04:00",0.0,19.7,94.0,999.3,313.6,1.0,1.4,311.1,0.00,18.7,20.5,"03:50:08",1
"23/06/13","04:10",0.0,19.8,94.1,999.3,342.5,1.0,1.3,350.1,0.00,18.9,20.6,"04:03:44",1
"23/06/13","04:20",0.0,19.7,94.1,999.6,311.6,1.0,1.3,343.1,0.00,18.8,20.3,"04:10:40",1
"23/06/13","04:30",0.0,19.5,94.2,999.3,283.5,0.8,1.0,285.6,0.00,18.6,20.4,"04:20:56",1
"23/06/13","04:40",0.0,19.4,94.4,999.1,300.7,1.1,1.4,324.3,0.00,18.5,20.4,"04:39:04",1
"23/06/13","04:50",0.0,19.2,94.5,999.3,312.6,0.8,1.3,337.7,0.00,18.3,20.4,"04:47:44",1
"23/06/13","05:00",0.0,19.2,94.7,999.3,304.2,1.1,1.3,334.2,0.00,18.4,20.2,"04:50:08",1
"23/06/13","05:10",0.0,19.0,94.7,999.3,308.3,1.0,1.3,315.0,0.00,18.2,20.4,"05:06:16",1
"23/06/13","05:20",0.0,19.0,94.9,999.3,313.3,1.2,1.7,311.4,0.00,18.2,20.4,"05:16:56",1
"23/06/13","05:30",0.0,19.0,95.0,999.6,308.5,1.1,1.8,318.9,0.00,18.2,20.3,"05:23:04",1
"23/06/13","05:40",0.0,19.3,95.2,999.6,300.1,1.2,1.7,317.2,0.00,18.6,20.5,"05:31:28",1
"23/06/13","05:50",0.0,19.3,95.2,999.6,295.6,1.0,1.2,312.0,0.00,18.6,20.3,"05:40:40",1
"23/06/13","06:00",0.0,19.5,95.3,999.3,301.3,1.1,1.8,329.1,0.00,18.8,20.3,"05:57:36",1
"23/06/13","06:10",0.0,19.6,95.4,999.8,311.6,1.1,1.7,327.7,0.00,18.9,20.2,"06:00:40",1
"23/06/13","06:20",0.0,19.8,95.4,999.6,315.9,1.1,1.7,318.3,0.00,19.1,20.2,"06:10:32",1
"23/06/13","06:30",0.0,20.0,95.5,999.8,322.5,1.2,1.8,341.7,0.00,19.3,20.1,"06:20:48",1
"23/06/13","06:40",0.0,20.2,95.4,999.8,317.2,1.0,1.3,322.3,0.01,19.5,20.0,"06:30:48",1
"23/06/13","06:50",0.0,20.3,95.5,1000.3,300.2,0.8,1.2,316.7,0.01,19.6,20.2,"06:49:52",1
"23/06/13","07:00",0.0,20.5,95.6,1000.0,319.5,1.1,1.3,334.1,0.03,19.8,20.3,"06:53:28",1
"23/06/13","07:10",0.0,20.7,95.5,1000.0,315.4,1.1,1.4,317.0,0.04,20.0,20.0,"07:00:16",1
"23/06/13","07:20",0.0,21.0,95.5,1000.3,311.5,0.8,1.2,326.4,0.04,20.3,20.2,"07:12:08",1
"23/06/13","07:30",0.0,21.2,95.5,1000.3,283.9,0.8,1.2,263.1,0.05,20.5,20.2,"07:27:36",1
"23/06/13","07:40",0.0,22.2,95.6,1000.5,306.8,0.2,0.8,255.4,0.12,21.5,19.9,"07:30:40",1
"23/06/13","07:50",0.0,23.1,95.3,1000.5,350.9,0.5,1.3,306.3,0.18,22.3,20.2,"07:42:24",1
"23/06/13","08:00",0.0,23.4,94.5,1000.8,6.3,0.6,1.4,2.5,0.18,22.5,20.1,"07:55:20",1
"23/06/13","08:10",0.0,23.3,93.7,1000.5,357.2,0.7,1.8,7.2,0.18,22.3,20.2,"08:04:00",1
"23/06/13","08:20",0.0,23.5,92.8,1000.3,88.1,0.6,1.6,107.3,0.18,22.3,20.2,"08:16:08",1
"23/06/13","08:30",0.0,24.0,91.7,1000.3,128.5,0.5,1.3,104.7,0.22,22.6,20.4,"08:28:16",1
"23/06/13","08:40",0.0,24.1,89.5,999.8,146.2,0.8,1.8,111.1,0.23,22.3,20.3,"08:31:44",1
"23/06/13","08:50",0.0,25.0,88.3,999.8,165.3,0.6,1.6,133.0,0.25,23.0,20.2,"08:45:52",1
"23/06/13","09:00",0.0,25.1,85.2,999.1,126.8,1.0,2.5,109.7,0.27,22.5,20.3,"08:57:52",1
"23/06/13","09:10",0.0,25.2,83.0,998.9,112.2,0.7,2.0,100.8,0.23,22.1,20.3,"09:06:56",1
"23/06/13","09:20",0.0,26.0,81.0,999.3,165.1,0.6,1.8,152.6,0.30,22.5,20.4,"09:15:44",1
"23/06/13","09:30",0.0,26.5,79.3,999.6,166.2,1.0,2.4,154.5,0.35,22.7,20.3,"09:24:24",1
"23/06/13","09:40",0.2,26.4,77.0,999.8,158.6,1.2,2.5,174.4,0.30,22.1,20.3,"09:33:20",1
"23/06/13","09:50",0.0,25.5,77.2,999.6,212.5,1.5,4.0,223.8,0.17,21.3,20.5,"09:42:24",1
"23/06/13","10:00",0.0,25.6,77.4,999.3,219.0,0.7,1.8,235.5,0.17,21.4,20.5,"09:57:04",1
"23/06/13","10:10",0.0,26.6,75.7,999.6,123.8,0.6,1.9,39.7,0.39,22.0,20.5,"10:06:40",1
"23/06/13","10:20",0.0,27.2,72.9,999.6,19.4,0.8,2.1,7.6,0.30,22.0,20.4,"10:15:36",1
"23/06/13","10:30",0.0,26.8,72.6,999.6,83.6,1.2,3.9,239.6,0.16,21.5,20.6,"10:29:52",1
"23/06/13","10:40",0.0,25.6,75.9,998.6,210.9,1.8,3.9,208.2,0.10,21.1,20.7,"10:31:36",1
"23/06/13","10:50",0.0,25.5,78.3,998.6,176.5,1.2,2.5,206.7,0.10,21.5,20.6,"10:40:48",1
"23/06/13","11:00",0.0,26.3,78.8,998.4,150.1,0.8,1.4,125.3,0.22,22.4,20.7,"10:56:00",1
"23/06/13","11:10",0.0,26.9,76.5,998.6,150.8,0.8,2.0,96.8,0.26,22.5,20.8,"11:00:24",1
"23/06/13","11:20",0.0,26.6,75.7,998.9,178.8,0.8,2.1,134.3,0.13,22.0,20.9,"11:13:36",1
"23/06/13","11:30",0.0,26.5,74.9,998.9,153.3,0.7,1.9,131.0,0.12,21.7,20.8,"11:23:36",1
"23/06/13","11:40",0.0,26.7,75.9,998.2,142.8,0.8,2.7,195.1,0.14,22.1,20.9,"11:31:12",1
"23/06/13","11:50",0.0,27.2,75.5,998.2,135.2,1.2,2.6,200.0,0.28,22.5,21.0,"11:46:00",1
"23/06/13","12:00",0.0,27.9,74.8,998.4,154.3,1.1,2.6,190.1,0.43,23.1,21.1,"11:50:02",1
"23/06/13","12:10",0.0,28.3,73.0,998.6,205.1,1.7,4.0,214.3,0.58,23.0,20.7,"12:03:36",1
"23/06/13","12:20",0.0,28.7,71.0,998.6,168.1,2.0,4.4,210.4,0.61,23.0,21.1,"12:17:44",1
"23/06/13","12:30",0.0,29.0,70.2,999.6,138.3,1.5,3.3,195.0,0.49,23.1,21.1,"12:22:48",1
"23/06/13","12:40",0.0,28.8,71.0,999.3,142.3,1.3,2.9,133.3,0.36,23.1,21.2,"12:30:32",1
"23/06/13","12:50",0.0,29.2,69.2,999.3,142.3,1.6,3.4,133.6,0.57,23.0,21.1,"12:45:36",1
"23/06/13","13:00",0.0,29.1,67.4,999.3,164.0,2.0,3.7,185.5,0.49,22.5,21.3,"12:50:08",1
"23/06/13","13:10",0.0,29.1,68.0,999.1,176.2,2.1,4.3,139.2,0.46,22.6,21.3,"13:04:56",1
"23/06/13","13:20",0.0,29.0,67.8,999.1,209.0,2.3,4.0,221.7,0.53,22.5,21.3,"13:15:04",1
"23/06/13","13:30",0.0,29.7,65.9,998.9,194.2,2.1,4.4,204.7,0.57,22.7,21.2,"13:25:20",1
"23/06/13","13:40",0.0,29.9,65.1,999.3,151.7,2.0,5.1,232.6,0.53,22.7,21.5,"13:39:04",1
"23/06/13","13:50",0.0,29.2,65.4,998.9,200.9,2.3,4.1,234.6,0.39,22.1,21.4,"13:40:32",1
"23/06/13","14:00",0.0,29.3,65.9,998.6,178.9,2.1,4.2,196.3,0.34,22.3,21.6,"13:57:36",1
"23/06/13","14:10",0.0,29.2,66.7,998.4,172.1,2.0,4.3,188.9,0.31,22.4,21.7,"14:08:32",1
"23/06/13","14:20",0.0,28.9,66.5,998.2,192.8,2.6,4.9,230.0,0.27,22.1,21.6,"14:15:28",1
"23/06/13","14:30",0.0,29.4,66.0,997.9,184.0,2.6,4.5,214.6,0.38,22.4,21.7,"14:28:08",1
"23/06/13","14:40",0.0,28.8,67.2,997.9,181.0,2.7,6.3,217.8,0.19,22.2,21.7,"14:36:48",1
"23/06/13","14:50",0.0,28.7,67.4,997.7,177.9,2.7,4.9,165.9,0.24,22.1,21.7,"14:41:04",1
"23/06/13","15:00",0.0,28.8,66.7,997.4,170.1,2.3,5.5,136.5,0.23,22.0,21.8,"14:59:04",1
"23/06/13","15:10",0.0,29.0,65.2,997.4,192.7,2.5,3.9,191.0,0.25,21.8,21.8,"15:02:40",1
"23/06/13","15:20",0.0,28.8,64.5,997.0,176.0,2.6,4.9,213.0,0.19,21.5,21.9,"15:17:44",1
"23/06/13","15:30",0.0,28.6,65.1,997.0,190.2,2.7,4.4,185.8,0.16,21.4,21.8,"15:24:08",1
"23/06/13","15:40",0.0,28.7,65.0,997.0,174.9,2.7,4.0,194.7,0.19,21.5,21.9,"15:30:08",1
"23/06/13","15:50",0.0,29.0,63.6,997.4,182.4,2.7,4.3,213.7,0.25,21.4,22.0,"15:45:36",1
"23/06/13","16:00",0.0,28.9,64.9,997.4,183.2,2.7,4.8,222.2,0.21,21.7,22.0,"15:57:04",1
"23/06/13","16:10",0.0,28.6,65.5,997.4,177.9,2.7,5.5,221.9,0.16,21.5,22.0,"16:01:52",1
"23/06/13","16:20",0.0,28.5,65.7,997.2,193.7,2.6,5.5,229.8,0.14,21.5,22.0,"16:12:40",1
"23/06/13","16:30",0.0,28.4,65.8,997.2,191.6,2.5,4.9,214.0,0.12,21.4,22.1,"16:20:24",1
"23/06/13","16:40",0.0,28.4,66.4,997.0,193.8,2.3,4.1,230.7,0.12,21.6,21.8,"16:33:04",1
"23/06/13","16:50",0.0,28.1,66.9,997.4,187.0,2.0,3.4,232.3,0.11,21.4,22.1,"16:42:32",1
"23/06/13","17:00",0.0,28.0,67.5,997.2,184.3,2.1,3.6,196.3,0.11,21.5,22.0,"16:52:24",1
"23/06/13","17:10",0.0,28.0,66.4,997.7,218.3,1.5,2.9,236.7,0.08,21.2,22.1,"17:03:36",1
"23/06/13","17:20",0.0,27.6,66.3,997.4,291.1,1.7,4.1,339.1,0.04,20.8,22.1,"17:19:04",1
"23/06/13","17:30",0.0,27.0,68.9,997.9,311.8,1.3,2.9,247.7,0.03,20.8,22.2,"17:25:20",1
"23/06/13","17:40",0.0,26.7,70.6,997.9,333.6,1.7,3.1,327.1,0.04,21.0,22.2,"17:33:52",1
"23/06/13","17:50",0.0,26.5,71.7,998.2,346.2,1.5,3.1,348.3,0.05,21.0,22.1,"17:41:44",1
"23/06/13","18:00",0.0,26.7,71.5,997.9,355.7,1.1,1.8,317.2,0.05,21.2,21.9,"17:59:36",1
"23/06/13","18:10",0.0,26.9,69.6,998.2,264.6,1.8,3.9,242.4,0.04,20.9,22.0,"18:09:36",1
"23/06/13","18:20",0.0,27.2,69.7,998.4,274.3,1.2,2.4,339.3,0.02,21.2,22.1,"18:19:12",1
"23/06/13","18:30",0.0,26.7,71.5,998.9,340.0,2.0,3.3,343.2,0.02,21.2,22.2,"18:28:32",1
"23/06/13","18:40",0.0,25.4,72.5,998.9,347.0,2.7,5.2,344.9,0.02,20.1,22.0,"18:37:28",1
"23/06/13","18:50",0.0,25.0,74.1,999.1,346.5,2.6,5.0,0.7,0.02,20.1,22.2,"18:42:00",1
"23/06/13","19:00",0.0,24.6,75.4,999.1,345.7,2.5,5.4,344.1,0.02,20.0,22.3,"18:53:12",1
"23/06/13","19:10",0.0,24.5,76.2,999.6,330.3,1.7,3.4,306.5,0.01,20.1,22.0,"19:00:16",1
"23/06/13","19:20",0.0,24.4,76.4,999.6,330.5,1.3,2.9,321.3,0.00,20.0,22.0,"19:14:00",1
"23/06/13","19:30",0.0,24.4,76.5,999.1,339.9,1.7,2.8,352.3,0.00,20.0,21.9,"19:21:52",1
"23/06/13","19:40",0.0,24.3,77.0,999.3,334.9,1.6,3.4,334.8,0.00,20.1,21.8,"19:30:02",1
"23/06/13","19:50",0.0,24.1,77.8,999.3,332.5,2.0,3.5,334.3,0.00,20.0,21.9,"19:43:12",1
"23/06/13","20:00",0.0,24.0,78.6,999.3,340.8,1.3,2.7,330.7,0.00,20.1,22.1,"19:54:00",1
"23/06/13","20:10",0.0,23.8,79.5,999.6,337.1,1.3,3.4,326.2,0.00,20.1,22.0,"20:08:16",1
"23/06/13","20:20",0.0,23.6,80.1,999.3,347.1,1.3,2.6,348.3,0.00,20.0,22.0,"20:10:40",1
"23/06/13","20:30",0.0,23.5,81.0,999.3,346.7,1.5,2.7,352.1,0.00,20.1,22.0,"20:28:32",1
"23/06/13","20:40",0.0,23.3,81.7,999.6,343.3,2.0,3.3,343.4,0.00,20.0,22.1,"20:39:20",1
"23/06/13","20:50",0.0,23.2,82.0,999.8,336.3,2.0,3.7,333.3,0.00,20.0,21.8,"20:44:48",1
"23/06/13","21:00",0.0,23.1,82.2,999.3,341.2,1.3,2.6,337.1,0.00,19.9,22.1,"20:52:40",1
"23/06/13","21:10",0.0,22.9,82.7,999.3,335.4,1.3,2.8,350.2,0.00,19.8,21.9,"21:06:48",1
"23/06/13","21:20",0.0,23.0,82.8,999.6,323.1,1.8,3.1,328.4,0.00,20.0,21.8,"21:15:36",1
"23/06/13","21:30",0.0,22.9,82.9,999.6,331.1,2.2,4.0,342.2,0.00,19.9,21.9,"21:27:44",1
"23/06/13","21:40",0.0,22.9,83.0,999.6,337.8,1.7,3.4,324.5,0.00,19.9,21.9,"21:31:04",1
"23/06/13","21:50",0.0,22.7,83.7,999.8,336.7,2.0,2.8,350.4,0.00,19.8,21.8,"21:40:08",1
"23/06/13","22:00",0.0,22.5,84.1,1000.0,317.0,1.6,2.9,338.5,0.00,19.7,21.8,"21:50:40",1
"23/06/13","22:10",0.0,22.5,84.6,999.8,298.8,1.2,2.4,314.7,0.00,19.8,21.8,"22:09:44",1
"23/06/13","22:20",0.0,22.4,84.9,1000.3,316.8,1.3,1.9,320.1,0.00,19.8,21.7,"22:17:52",1
"23/06/13","22:30",0.0,22.5,85.0,1000.0,328.2,2.3,3.9,342.5,0.00,19.9,21.7,"22:22:32",1
"23/06/13","22:40",0.0,22.7,84.6,1000.0,320.9,2.1,3.7,321.1,0.00,20.0,21.9,"22:38:16",1
"23/06/13","22:50",0.0,22.7,84.5,1000.5,328.6,2.5,4.2,333.7,0.00,20.0,21.7,"22:44:08",1
"23/06/13","23:00",0.0,22.7,84.6,1000.3,328.1,2.2,5.0,340.9,0.00,20.0,21.7,"22:54:16",1
"23/06/13","23:10",0.0,22.6,84.8,1000.3,335.9,1.7,3.6,350.7,0.00,20.0,21.7,"23:09:36",1
"23/06/13","23:20",0.0,22.5,85.0,999.8,331.4,1.5,2.2,341.4,0.00,19.9,21.6,"23:10:56",1
"23/06/13","23:30",0.0,22.3,85.5,999.8,343.6,1.6,2.7,340.4,0.00,19.8,21.7,"23:28:24",1
"23/06/13","23:40",0.0,22.3,86.0,1000.0,334.1,1.7,3.4,343.8,0.00,19.9,21.5,"23:35:52",1
"23/06/13","23:50",0.0,22.2,86.2,1000.0,325.3,1.8,2.8,332.1,0.00,19.8,21.5,"23:45:20",1
"23/06/13","24:00",0.0,22.2,86.3,999.8,318.7,1.7,2.5,327.0,0.00,19.8,21.3,"23:50:16",1
